[[{"header":{"parameterUnit":"m.s-1","parameterCategory":1,"la1":30.2991,"la2":30.254,"lo1":-89.0895,"lo2":-89.0444,"dy":0.0017,"dx":0.0017,"nx":28,"ny":28,"refTime":"2023-07-20T09:00:00:Z","depth":0,"parameterNumber":2,"parameterNumberName":"U-component_of_WINDS"},"data":[0,0,0,0,0,0,0,0,0,0,0,0,0,0,0,0,0,0,0,0,0,0,0,0,0,0,0,0,0,0,0,0,0,0,0,0,0,0,0,0,0,0,0,0,0,0,0,0,0,0,0,0,0,0,0,0,0,0,0.3199,0.3199,0,0.3223,0.3223,0.3223,0.3196,0.3194,0.3193,0.3192,0.3218,0.3219,0.3221,0,0,0,0,0,0,0,0,0,0,0,0,0,0.3129,0.3131,0.3199,0.3199,0.3199,0.3222,0.3223,0.3223,0.3196,0.3194,0.3193,0.3192,0.3217,0.3219,0.3221,0,0,0,0,0,0,0,0,0,0,0,0,0,0.3157,0.3131,0.3199,0.3188,0.3188,0.3222,0.3223,0.3223,0.3196,0.3194,0.3193,0.3191,0.3217,0.3219,0.3221,0.3268,0,0,0.3229,0.323,0,0,0,0,0,0,0,0,0.3155,0.316,0.319,0.3189,0.3189,0.3204,0.3207,0.3238,0.3196,0.3193,0.3192,0.3191,0.3215,0.3217,0.3225,0.3269,0.327,0.3229,0.3231,0.3232,0.3232,0,0,0,0,0,0,0,0.3154,0.3158,0.3208,0.319,0.3189,0.3182,0.3185,0.3213,0.3212,0.3193,0.3191,0.3194,0.3214,0.3223,0.3225,0.327,0.3229,0.3231,0.3233,0.3234,0.3351,0.3352,0,0,0,0,0,0,0.3153,0.3157,0.3207,0.3209,0.3168,0.3185,0.3187,0.3201,0.3212,0.3212,0.3196,0.3193,0.3219,0.3223,0.3226,0.3279,0.3232,0.3234,0.3235,0.3349,0.3351,0.3353,0,0,0,0,0,0,0.3151,0.3158,0.3207,0.3182,0.3188,0.3188,0.3203,0.3202,0.3211,0.3214,0.3213,0.3205,0.3218,0.3223,0.3257,0.328,0.3235,0.3237,0.3347,0.335,0.3352,0.3387,0,0,0,0,0,0,0.315,0.3157,0.3175,0.3183,0.3189,0.3237,0.3205,0.3204,0.3215,0.3212,0.3222,0.3222,0.3217,0.3253,0.3259,0.3283,0.3239,0.3345,0.3348,0.3351,0.3384,0.3391,0.3396,0,0,0,0,0,0.3147,0.3185,0.3176,0.3182,0.3212,0.3239,0.3242,0.3235,0.3217,0.3235,0.3236,0.3222,0.3277,0.3257,0.3264,0.3288,0.3344,0.3347,0.3351,0.3381,0.3389,0.3396,0,0,0,0,0,0,0.318,0.3186,0.3176,0.3218,0.3228,0.3234,0.3256,0.3244,0.326,0.3257,0.3248,0.325,0.3286,0.3291,0.3269,0.3332,0.3307,0.3312,0.3328,0.3336,0.3342,0.334,0.3241,0,0,0,0,0,0.3192,0.3214,0.3217,0.3253,0.3259,0.3257,0.3268,0.3262,0.3272,0.3276,0.328,0.3291,0.331,0.3323,0.3341,0.3385,0.3386,0.3404,0.341,0.3415,0.342,0.3441,0.3449,0.3365,0.3365,0.3365,0,0,0.3218,0.3223,0.3237,0.326,0.3267,0.3289,0.326,0.3285,0.3301,0.328,0.3312,0.3315,0.3327,0.3365,0.3382,0.337,0.3443,0.342,0.3424,0.3426,0.3446,0.3454,0.3461,0.3367,0.3367,0.3367,0,0,0.3275,0.3282,0.3311,0.3319,0.3329,0.3327,0.3334,0.3342,0.3343,0.3375,0.3359,0.3378,0.3412,0.342,0.3428,0.3486,0.3473,0.3492,0.3524,0.3545,0.3552,0.3558,0.3577,0.3585,0.3497,0.3497,0.3497,0,0.3305,0.3337,0.3328,0.3354,0.3363,0.3345,0.3374,0.3382,0.3398,0.3405,0.3391,0.3432,0.3438,0.3477,0.3491,0.3499,0.3506,0.3491,0.3552,0.3557,0.3563,0.3581,0.3589,0.3499,0.3499,0.3499,0.3498,0,0.3373,0.3395,0.3418,0.3433,0.3446,0.3473,0.3468,0.3482,0.3474,0.3473,0.3505,0.3512,0.353,0.3539,0.3532,0.3576,0.3568,0.3553,0.3528,0.3573,0.359,0.3597,0.3502,0.3501,0.3501,0.35,0,0,0.3452,0.3461,0.3469,0.3475,0.3485,0.3502,0.3528,0.3545,0.3556,0.3568,0.3589,0.3617,0.3602,0.3612,0.3606,0.3624,0.3668,0.3606,0.3607,0.3617,0.3716,0.3726,0.3735,0.3659,0.3661,0.3662,0.3714,0,0.3508,0.3553,0.3545,0.3588,0.3608,0.3589,0.3612,0.362,0.362,0.3636,0.3636,0.3655,0.3635,0.3641,0.3658,0.3659,0.3687,0.3655,0.3678,0.3679,0.3675,0.3744,0.3756,0.3805,0.3721,0.3722,0.3723,0,0.358,0.3593,0.3638,0.3642,0.365,0.3671,0.3684,0.3701,0.3709,0.3707,0.3717,0.3707,0.3732,0.3706,0.3741,0.3719,0.3727,0.3729,0.3731,0.3732,0.3703,0.3746,0.3821,0.3828,0.3734,0.3733,0.3732,0,0.3631,0.366,0.369,0.3696,0.3703,0.3717,0.372,0.3727,0.3737,0.375,0.3756,0.3771,0.378,0.3792,0.3786,0.3768,0.382,0.3795,0.3819,0.3819,0.3831,0.383,0.3907,0.3838,0.3838,0.3838,0.3838,0,0.3694,0.3722,0.3713,0.3732,0.3762,0.3752,0.3783,0.3784,0.379,0.3808,0.3793,0.381,0.3801,0.3818,0.3813,0.3841,0.3846,0.3844,0.3843,0.3845,0.3845,0.3851,0.3847,0.384,0.3839,0.3839,0.3839,0,0.3757,0.3753,0.3784,0.3787,0.3788,0.381,0.3813,0.383,0.3828,0.385,0.3855,0.3852,0.387,0.3865,0.3886,0.3883,0.3918,0.3912,0.3915,0.3913,0.3938,0.3935,0.402,0.403,0.3956,0.3956,0.3957,0,0.3797,0.3818,0.3823,0.3833,0.3838,0.3855,0.3865,0.3856,0.3867,0.3877,0.3892,0.3909,0.3922,0.3952,0.3952,0.3967,0.3961,0.399,0.3963,0.3965,0.396,0.3959,0.396,0.3995,0.3996,0.3996,0.3997,0,0.3868,0.3864,0.3879,0.3892,0.3904,0.3915,0.3924,0.3933,0.3925,0.3937,0.3955,0.3965,0.3985,0.4002,0.4015,0.4019,0.4006,0.4005,0.4012,0.4014,0.4014,0.4013,0.3928,0.4003,0.4003,0.4002,0.4002,0.4002,0.392,0.3937,0.3943,0.3959,0.3964,0.3973,0.3988,0.3987,0.4002,0.4017,0.4011,0.4031,0.4038,0.4054,0.4059,0.4075,0.4064,0.4073,0.4076,0.4078,0.408,0.4012,0.4077,0.4077,0.4077,0.4077,0.4077,0,0.3989,0.3992,0.4007,0.4019,0.4031,0.4018,0.4027,0.4038,0.4056,0.4063,0.4075,0.4095,0.4111,0.4111,0.4126,0.4138,0.4133,0.4142,0.4141,0.4141,0.409,0.4082,0.4146,0.4146,0.4146,0.4146,0.4146,0.4146,0.4027,0.4054,0.4051,0.408,0.4082,0.4102,0.4107,0.4115,0.412,0.4143,0.4155,0.4155,0.4159,0.4173,0.4186,0.4186,0.4192,0.4203,0.42,0.4152,0.4145,0.4139,0.4132,0.4205,0.4205,0.4251,0.4251,0.4251]},{"header":{"parameterUnit":"m.s-1","parameterCategory":1,"la1":30.2991,"la2":30.254,"lo1":-89.0895,"lo2":-89.0444,"dy":0.0017,"dx":0.0017,"nx":28,"ny":28,"refTime":"2023-07-20T09:00:00:Z","depth":0,"parameterNumber":3,"parameterNumberName":"V-component_of_WINDS"},"data":[0,0,0,0,0,0,0,0,0,0,0,0,0,0,0,0,0,0,0,0,0,0,0,0,0,0,0,0,0,0,0,0,0,0,0,0,0,0,0,0,0,0,0,0,0,0,0,0,0,0,0,0,0,0,0,0,0,0,3.5176,3.5176,0,3.5176,3.5176,3.5176,3.5085,3.5082,3.508,3.5078,3.5077,3.5079,3.5082,0,0,0,0,0,0,0,0,0,0,0,0,0,3.5098,3.51,3.5176,3.5176,3.5176,3.5176,3.5176,3.5176,3.5085,3.5082,3.5079,3.5077,3.5076,3.5079,3.5082,0,0,0,0,0,0,0,0,0,0,0,0,0,3.5118,3.51,3.5176,3.5131,3.5127,3.5176,3.5176,3.5176,3.5086,3.5082,3.5079,3.5075,3.5076,3.5079,3.5082,3.5174,0,0,3.5092,3.5094,0,0,0,0,0,0,0,0,3.5117,3.5121,3.5138,3.5134,3.513,3.5127,3.5148,3.5175,3.5087,3.5102,3.5078,3.5074,3.5097,3.5098,3.5106,3.5174,3.5174,3.5092,3.5094,3.5096,3.5097,0,0,0,0,0,0,0,3.5116,3.512,3.5176,3.5138,3.5133,3.511,3.5109,3.5152,3.5119,3.51,3.5093,3.5095,3.5094,3.5103,3.5105,3.5174,3.5092,3.5095,3.5097,3.5099,3.5314,3.5318,0,0,0,0,0,0,3.5121,3.512,3.5176,3.5176,3.5114,3.5115,3.5113,3.5131,3.5118,3.5113,3.5098,3.509,3.5099,3.5101,3.5105,3.5209,3.5096,3.5099,3.5101,3.5311,3.5315,3.5319,0,0,0,0,0,0,3.5119,3.5126,3.5176,3.5146,3.5151,3.512,3.5141,3.5133,3.5142,3.5117,3.511,3.5113,3.5096,3.51,3.5157,3.5208,3.51,3.5103,3.5306,3.5312,3.5317,3.542,0,0,0,0,0,0,3.5117,3.5127,3.5162,3.5148,3.5153,3.5229,3.5144,3.5136,3.5148,3.5138,3.5129,3.5124,3.5094,3.5152,3.516,3.521,3.5106,3.5301,3.5309,3.5315,3.5412,3.5428,3.5442,0,0,0,0,0,3.5115,3.5191,3.5164,3.5171,3.5196,3.5232,3.5235,3.5198,3.5153,3.5187,3.517,3.5125,3.5201,3.5159,3.5167,3.5219,3.5298,3.5307,3.5315,3.5405,3.5425,3.5442,0,0,0,0,0,0,3.5213,3.5189,3.5158,3.5232,3.5235,3.5217,3.5259,3.5221,3.5237,3.5227,3.5181,3.5179,3.5243,3.5237,3.519,3.5306,3.5241,3.5252,3.5307,3.5326,3.5341,3.534,3.5109,0,0,0,0,0,3.5243,3.5274,3.5252,3.5319,3.5322,3.5291,3.5305,3.5276,3.5277,3.5278,3.5265,3.5268,3.5292,3.5309,3.533,3.5411,3.5406,3.545,3.5466,3.5479,3.5488,3.5527,3.5546,3.5347,3.5347,3.5347,0,0,3.5306,3.5296,3.5319,3.5339,3.5337,3.537,3.5292,3.5331,3.5354,3.5284,3.5335,3.5327,3.5326,3.5395,3.5424,3.5392,3.5542,3.5489,3.55,3.5502,3.5538,3.5557,3.5574,3.5353,3.5352,3.5351,0,0,3.5436,3.5433,3.5487,3.5487,3.5486,3.5464,3.5477,3.5465,3.5456,3.5507,3.5454,3.5482,3.5525,3.5526,3.5532,3.5661,3.5619,3.567,3.5749,3.5789,3.5804,3.5818,3.5862,3.5878,3.5679,3.5679,3.568,0,3.5514,3.5561,3.5521,3.5562,3.5571,3.5508,3.5562,3.5564,3.557,3.5577,3.5541,3.5592,3.5588,3.5654,3.5686,3.5694,3.5706,3.567,3.5805,3.5819,3.5831,3.5872,3.5889,3.5685,3.5685,3.5684,3.5683,0,3.5656,3.569,3.5734,3.5739,3.5754,3.5802,3.5767,3.5787,3.5757,3.5739,3.5791,3.5783,3.58,3.5814,3.5786,3.5877,3.5856,3.5814,3.5748,3.5856,3.5894,3.591,3.5694,3.5692,3.569,3.5689,0,0,3.5848,3.5829,3.5846,3.5847,3.584,3.5865,3.5909,3.5925,3.5942,3.5948,3.5982,3.602,3.598,3.5987,3.5958,3.5993,3.6093,3.5945,3.5944,3.5971,3.6189,3.622,3.6239,3.6065,3.6068,3.6071,3.6189,0,3.5972,3.6046,3.6009,3.6087,3.6116,3.6057,3.6095,3.6094,3.6078,3.6101,3.6083,3.6109,3.6056,3.6059,3.6091,3.6074,3.6136,3.6065,3.6096,3.6097,3.6096,3.6259,3.6292,3.6404,3.6203,3.6206,3.6208,0,3.6127,3.6137,3.6218,3.6203,3.6214,3.6249,3.626,3.6282,3.628,3.6266,3.6274,3.6236,3.6277,3.6213,3.6269,3.6222,3.6232,3.6226,3.6229,3.6229,3.6158,3.6261,3.6439,3.6455,3.6231,3.6229,3.6228,0,3.6255,3.6291,3.6342,3.6345,3.633,3.6355,3.635,3.6344,3.6356,3.6366,3.6372,3.6387,3.6395,3.6407,3.6374,3.6331,3.6434,3.6368,3.6422,3.6423,3.6445,3.6443,3.6625,3.6456,3.6455,3.6455,3.6455,0,3.6396,3.6448,3.6399,3.6431,3.6486,3.6444,3.6499,3.6488,3.6483,3.6511,3.6461,3.6488,3.6444,3.6466,3.6441,3.649,3.6494,3.6483,3.6475,3.6486,3.6488,3.6491,3.6482,3.6459,3.6458,3.6458,3.6457,0,3.6549,3.6519,3.6571,3.6552,3.6548,3.6589,3.6572,3.6601,3.6581,3.6617,3.6623,3.6592,3.6616,3.6585,3.6607,3.6589,3.6655,3.6637,3.6655,3.6649,3.6704,3.6699,3.6893,3.6915,3.6734,3.6736,3.6737,0,3.664,3.6677,3.6662,3.6676,3.6674,3.6698,3.6709,3.6669,3.6682,3.6681,3.6709,3.6729,3.6742,3.6783,3.6763,3.6779,3.6759,3.6826,3.6761,3.677,3.6757,3.6755,3.6757,3.6839,3.6841,3.6843,3.6844,0,3.6804,3.6787,3.6804,3.6816,3.683,3.6837,3.6841,3.6856,3.6814,3.6831,3.6854,3.6865,3.6886,3.6905,3.6915,3.691,3.687,3.6865,3.6878,3.6888,3.6897,3.689,3.6689,3.686,3.6858,3.6857,3.6856,3.6856,3.6927,3.6956,3.6949,3.6969,3.6967,3.6972,3.6996,3.6979,3.6998,3.7011,3.6986,3.7015,3.701,3.702,3.7018,3.704,3.7011,3.7031,3.7035,3.704,3.7048,3.6895,3.7042,3.7042,3.7041,3.7041,3.7041,0,3.7086,3.7078,3.7097,3.7103,3.7118,3.7079,3.7081,3.7096,3.7122,3.7121,3.7134,3.716,3.7179,3.716,3.7174,3.7196,3.7177,3.7201,3.7198,3.7196,3.7074,3.706,3.7215,3.7215,3.7215,3.7215,3.7215,3.7215,3.717,3.7217,3.7199,3.7244,3.7235,3.7262,3.7267,3.727,3.7268,3.7299,3.7313,3.7301,3.7292,3.7305,3.732,3.7314,3.7321,3.735,3.7337,3.7223,3.7205,3.7189,3.7176,3.7352,3.7352,3.7458,3.7459,3.7459]}]]